This demonstration page uses our WeatherBlox Daily Observations layout. Learn more.

Left ArrowRight Arrow

53.62937, 11.41316

Hourly Observations for May 13, 2019

Temp ( °F °C ) Dew Point ( °F °C ) Humidity (%) Winds ( mph kmh ) Pressure ( in mb ) Visibility ( mi km ) Precip ( " mm )
6:50 am 06:50 Mostly Sunny 39 4 36 2 87 87 W 5 7 30.62 1037 7 11 N/A
7:20 am 07:20 Mostly Sunny 41 5 36 2 81 81 W 5 7 30.62 1037 7 11 N/A
7:50 am 07:50 Mostly Sunny 43 6 37 3 81 81 W 6 9 30.62 1037 7 11 N/A
8:20 am 08:20 Mostly Sunny 45 7 39 4 81 81 WNW 3 6 30.62 1037 7 11 N/A
8:50 am 08:50 Mostly Sunny 46 8 39 4 76 76 VRB 5 7 30.62 1037 7 11 N/A
9:20 am 09:20 Mostly Sunny 48 9 37 3 66 66 VRB 5 7 30.62 1037 7 11 N/A
9:50 am 09:50 Mostly Sunny 50 10 39 4 67 67 VRB 5 7 30.62 1037 7 11 N/A
10:20 am 10:20 Mostly Sunny 52 11 39 4 62 62 WNW 5 7 30.62 1037 7 11 N/A
10:50 am 10:50 Mostly Sunny 52 11 37 3 58 58 VRB 5 7 30.62 1037 7 11 N/A
11:20 am 11:20 Mostly Sunny 54 12 37 3 54 54 VRB 8 13 30.62 1037 7 11 N/A
11:50 am 11:50 Mostly Sunny 55 13 36 2 47 47 NW 7 11 30.62 1037 7 11 N/A
12:20 pm 12:20 Mostly Sunny 57 14 34 1 41 41 VRB 7 11 30.62 1037 7 11 N/A
12:50 pm 12:50 Mostly Sunny 57 14 30 -1 36 36 VRB 6 9 30.62 1037 7 11 N/A
1:20 pm 13:20 Mostly Sunny 57 14 34 1 41 41 WNW 7 11 30.62 1037 7 11 N/A
1:50 pm 13:50 Mostly Sunny 57 14 28 -2 33 33 VRB 6 9 30.62 1037 7 11 N/A
2:20 pm 14:20 Mostly Sunny 57 14 27 -3 31 31 VRB 5 7 30.59 1036 7 11 N/A
2:50 pm 14:50 Mostly Sunny 57 14 25 -4 29 29 VRB 8 13 30.59 1036 7 11 N/A
3:20 pm 15:20 Mostly Sunny 57 14 27 -3 31 31 W 9 15 30.59 1036 7 11 N/A
3:50 pm 15:50 Mostly Sunny 59 15 30 -1 34 34 VRB 7 11 30.59 1036 7 11 N/A
4:20 pm 16:20 Mostly Sunny 59 15 30 -1 34 34 VRB 6 9 30.56 1035 7 11 N/A
4:50 pm 16:50 Mostly Sunny 61 16 30 -1 31 31 VRB 3 6 30.56 1035 7 11 N/A
5:20 pm 17:20 Mostly Sunny 57 14 32 0 39 39 VRB 7 11 30.56 1035 7 11 N/A
5:50 pm 17:50 Mostly Sunny 57 14 34 1 41 41 VRB 7 11 30.56 1035 7 11 N/A
6:20 pm 18:20 Mostly Sunny 57 14 34 1 41 41 VRB 7 11 30.56 1035 7 11 N/A
6:50 pm 18:50 Mostly Sunny 55 13 32 0 41 41 VRB 5 7 30.56 1035 7 11 N/A
7:20 pm 19:20 Mostly Sunny 55 13 32 0 41 41 VRB 5 7 30.56 1035 7 11 N/A
7:50 pm 19:50 Mostly Sunny 55 13 30 -1 38 38 VRB 5 7 30.56 1035 7 11 N/A
8:20 pm 20:20 Mostly Sunny 54 12 30 -1 41 41 VRB 2 4 30.56 1035 7 11 N/A
8:50 pm 20:50 Mostly Sunny 52 11 32 0 47 47 VRB 3 6 30.56 1035 7 11 N/A

Powered by AerisWeather